| time (UTC) | temp F | wind direction | speed knots | gust knots | rain 1hr in | rain 24hr in | rain mn in | humidity % | barometer mb |
| 20260901113047 | 59 | 136 | 1.7 | 5.2 | 0.00 | 0.00 | 0.00 | 78 | 985.6 |
| 20260901112547 | 59 | 189 | 1.7 | 5.2 | 0.00 | 0.00 | 0.00 | 78 | 985.6 |
| 20260901112048 | 59 | 142 | 1.7 | 4.3 | 0.00 | 0.00 | 0.00 | 78 | 985.6 |
| 20260901111548 | 59 | 183 | 0.9 | 5.2 | 0.00 | 0.00 | 0.00 | 79 | 985.4 |
| 20260901111048 | 59 | 160 | 1.7 | 5.2 | 0.00 | 0.00 | 0.00 | 79 | 985.6 |
| 20260901110551 | 58 | 186 | 0.9 | 5.2 | 0.00 | 0.00 | 0.00 | 80 | 985.7 |
| 20260901110547 | 59 | 143 | 1.7 | 5.2 | 0.00 | 0.00 | 0.00 | 79 | 985.7 |
| 20260901105547 | 58 | 187 | 0.0 | 2.6 | 0.00 | 0.00 | 0.00 | 81 | 985.8 |
| 20260901105047 | 58 | 214 | 0.0 | 2.6 | 0.00 | 0.00 | 0.00 | 81 | 985.9 |
| 20260901104552 | 58 | 208 | 0.0 | 1.7 | 0.00 | 0.00 | 0.00 | 82 | 985.9 |
| 20260901104548 | 58 | 153 | 0.0 | 0.9 | 0.00 | 0.00 | 0.00 | 81 | 985.9 |
| 20260901103547 | 57 | 210 | 0.0 | 1.7 | 0.00 | 0.00 | 0.00 | 83 | 985.9 |
| 20260901103051 | 56 | 147 | 0.0 | 0.0 | 0.00 | 0.00 | 0.00 | 85 | 986.0 |
| 20260901103047 | 56 | 150 | 0.0 | 0.0 | 0.00 | 0.00 | 0.00 | 84 | 986.0 |
| 20260901102654 | 56 | 138 | 0.0 | 0.0 | 0.00 | 0.00 | 0.00 | 85 | 986.0 |
| 20260901101548 | 56 | 138 | 0.0 | 0.0 | 0.00 | 0.00 | 0.00 | 84 | 986.3 |
| 20260901101047 | 55 | 212 | 0.0 | 0.0 | 0.00 | 0.00 | 0.00 | 85 | 986.1 |
| 20260901100551 | 55 | 212 | 0.0 | 0.0 | 0.00 | 0.00 | 0.00 | 85 | 986.3 |
| 20260901100547 | 55 | 212 | 0.0 | 0.0 | 0.00 | 0.00 | 0.00 | 85 | 986.3 |
| 20260901095551 | 56 | 158 | 0.0 | 0.0 | 0.00 | 0.00 | 0.00 | 85 | 986.4 |
| 20260901095547 | 55 | 212 | 0.0 | 0.0 | 0.00 | 0.00 | 0.00 | 85 | 986.3 |
| 20260901094547 | 56 | 157 | 0.0 | 0.0 | 0.00 | 0.00 | 0.00 | 84 | 986.3 |
| 20260901094048 | 55 | 157 | 0.0 | 0.0 | 0.00 | 0.00 | 0.00 | 84 | 986.4 |
| 20260901093549 | 55 | 157 | 0.0 | 0.0 | 0.00 | 0.00 | 0.00 | 84 | 986.5 |
| 20260901093048 | 55 | 157 | 0.0 | 0.0 | 0.00 | 0.00 | 0.00 | 84 | 986.6 |
| 20260901092547 | 55 | 157 | 0.0 | 0.0 | 0.00 | 0.00 | 0.00 | 85 | 986.7 |
| 20260901092048 | 56 | 157 | 0.0 | 0.0 | 0.00 | 0.00 | 0.00 | 84 | 986.7 |
| 20260901091547 | 56 | 158 | 0.0 | 0.0 | 0.00 | 0.00 | 0.00 | 84 | 986.9 |
| 20260901091048 | 56 | 196 | 0.0 | 0.0 | 0.00 | 0.00 | 0.00 | 84 | 986.7 |
| 20260901090548 | 56 | 196 | 0.0 | 0.0 | 0.00 | 0.00 | 0.00 | 84 | 986.9 |
| 20260901090047 | 56 | 196 | 0.0 | 0.0 | 0.00 | 0.00 | 0.00 | 83 | 986.9 |
| 20260901085547 | 56 | 196 | 0.0 | 0.0 | 0.00 | 0.00 | 0.00 | 83 | 987.0 |
| 20260901085052 | 57 | 196 | 0.0 | 0.0 | 0.00 | 0.00 | 0.00 | 82 | 987.0 |
| 20260901085048 | 57 | 196 | 0.0 | 0.0 | 0.00 | 0.00 | 0.00 | 82 | 986.9 |
| 20260901084048 | 57 | 196 | 0.0 | 0.0 | 0.00 | 0.00 | 0.00 | 82 | 987.0 |
| 20260901083551 | 56 | 196 | 0.0 | 0.0 | 0.00 | 0.00 | 0.00 | 83 | 987.1 |
| 20260901083547 | 57 | 196 | 0.0 | 0.0 | 0.00 | 0.00 | 0.00 | 82 | 987.0 |
| 20260901082547 | 56 | 196 | 0.0 | 0.0 | 0.00 | 0.00 | 0.00 | 83 | 987.1 |
| 20260901082047 | 57 | 196 | 0.0 | 0.0 | 0.00 | 0.00 | 0.00 | 82 | 987.1 |
| 20260901081045 | 58 | 186 | 0.0 | 0.0 | 0.00 | 0.00 | 0.00 | 81 | 987.2 |
| 20260901080547 | 58 | 186 | 0.0 | 0.0 | 0.00 | 0.00 | 0.00 | 81 | 987.3 |
| 20260901080049 | 58 | 194 | 0.0 | 0.0 | 0.00 | 0.00 | 0.00 | 81 | 987.4 |
| 20260901080045 | 58 | 194 | 0.0 | 0.0 | 0.00 | 0.00 | 0.00 | 80 | 987.3 |
| 20260901075045 | 58 | 223 | 0.0 | 0.0 | 0.00 | 0.00 | 0.00 | 81 | 987.6 |
| 20260901074545 | 57 | 223 | 0.0 | 0.0 | 0.00 | 0.00 | 0.00 | 82 | 987.6 |
| 20260901074045 | 57 | 239 | 0.0 | 0.0 | 0.00 | 0.00 | 0.00 | 83 | 987.7 |
| 20260901073546 | 57 | 205 | 0.0 | 0.0 | 0.00 | 0.00 | 0.00 | 83 | 987.7 |
| 20260901073046 | 56 | 167 | 0.0 | 0.0 | 0.00 | 0.00 | 0.00 | 84 | 987.6 |
| 20260901072545 | 57 | 167 | 0.0 | 0.0 | 0.00 | 0.00 | 0.00 | 84 | 987.4 |
| 20260901072043 | 57 | 208 | 0.0 | 0.0 | 0.00 | 0.00 | 0.00 | 83 | 987.4 |
| 20260901071548 | 57 | 208 | 0.0 | 0.0 | 0.00 | 0.00 | 0.00 | 83 | 987.6 |
| 20260901071543 | 57 | 208 | 0.0 | 0.0 | 0.00 | 0.00 | 0.00 | 83 | 987.3 |
| 20260901071153 | 57 | 208 | 0.0 | 0.0 | 0.00 | 0.00 | 0.00 | 81 | 987.4 |
| 20260901071149 | 57 | 208 | 0.0 | 0.0 | 0.00 | 0.00 | 0.00 | 82 | 987.4 |
| 20260901070148 | 57 | 208 | 0.0 | 0.0 | 0.00 | 0.00 | 0.00 | 82 | 987.4 |
| 20260901065648 | 57 | 208 | 0.0 | 0.0 | 0.00 | 0.00 | 0.00 | 82 | 987.3 |
| 20260901065043 | 57 | 208 | 0.0 | 0.0 | 0.00 | 0.00 | 0.00 | 82 | 987.3 |
| 20260901064043 | 57 | 208 | 0.0 | 0.0 | 0.00 | 0.00 | 0.00 | 82 | 987.2 |
| 20260901063545 | 57 | 208 | 0.0 | 0.0 | 0.00 | 0.00 | 0.00 | 82 | 987.2 |
| 20260901063541 | 57 | 162 | 0.0 | 0.0 | 0.00 | 0.00 | 0.00 | 81 | 987.3 |
| 20260901062541 | 57 | 203 | 0.0 | 0.0 | 0.00 | 0.00 | 0.00 | 81 | 987.2 |
| 20260901062042 | 57 | 203 | 0.0 | 0.0 | 0.00 | 0.00 | 0.00 | 82 | 987.2 |
| 20260901061541 | 58 | 203 | 0.0 | 0.0 | 0.00 | 0.00 | 0.00 | 82 | 987.3 |
| 20260901061041 | 58 | 203 | 0.0 | 0.0 | 0.00 | 0.00 | 0.00 | 81 | 987.3 |
| 20260901060541 | 58 | 203 | 0.0 | 0.0 | 0.00 | 0.00 | 0.00 | 81 | 987.3 |
| 20260901060044 | 58 | 155 | 0.0 | 0.0 | 0.00 | 0.00 | 0.00 | 81 | 987.3 |
| 20260901060040 | 58 | 153 | 0.0 | 0.0 | 0.00 | 0.00 | 0.00 | 81 | 987.3 |
| 20260901055038 | 58 | 153 | 0.0 | 0.0 | 0.00 | 0.00 | 0.00 | 80 | 987.4 |
| 20260901054538 | 58 | 154 | 0.0 | 0.0 | 0.00 | 0.00 | 0.00 | 80 | 987.6 |
| 20260901054038 | 58 | 154 | 0.0 | 0.0 | 0.00 | 0.00 | 0.00 | 81 | 987.7 |
| 20260901053537 | 58 | 154 | 0.0 | 0.0 | 0.00 | 0.00 | 0.00 | 81 | 987.7 |
| 20260901053038 | 58 | 154 | 0.0 | 0.0 | 0.00 | 0.00 | 0.00 | 81 | 987.8 |
| 20260901052538 | 58 | 154 | 0.0 | 0.0 | 0.00 | 0.00 | 0.00 | 81 | 987.7 |
| 20260901052036 | 58 | 154 | 0.0 | 0.0 | 0.00 | 0.00 | 0.00 | 80 | 987.7 |
| 20260901051542 | 58 | 154 | 0.0 | 0.0 | 0.00 | 0.00 | 0.00 | 79 | 987.7 |
| 20260901051537 | 58 | 154 | 0.0 | 0.0 | 0.00 | 0.00 | 0.00 | 79 | 987.7 |
| 20260901051142 | 59 | 153 | 0.0 | 1.7 | 0.00 | 0.00 | 0.00 | 79 | 987.7 |
| 20260901050035 | 59 | 153 | 0.0 | 1.7 | 0.00 | 0.00 | 0.00 | 79 | 987.7 |
| 20260901045536 | 59 | 179 | 0.0 | 0.9 | 0.00 | 0.00 | 0.00 | 80 | 987.8 |
| 20260901045037 | 59 | 159 | 0.0 | 1.7 | 0.00 | 0.00 | 0.00 | 80 | 987.7 |
| 20260901044536 | 59 | 186 | 0.0 | 1.7 | 0.00 | 0.00 | 0.00 | 79 | 987.7 |
| 20260901044036 | 59 | 195 | 0.0 | 2.6 | 0.00 | 0.00 | 0.00 | 80 | 987.7 |
| 20260901043536 | 59 | 195 | 0.0 | 2.6 | 0.00 | 0.01 | 0.00 | 81 | 987.8 |
| 20260901043034 | 59 | 191 | 0.0 | 0.0 | 0.00 | 0.01 | 0.00 | 81 | 987.7 |
| 20260901042540 | 59 | 185 | 0.0 | 2.6 | 0.00 | 0.04 | 0.00 | 81 | 987.4 |
| 20260901042534 | 58 | 212 | 0.0 | 0.0 | 0.00 | 0.03 | 0.00 | 82 | 987.4 |
| 20260901042035 | 59 | 212 | 0.0 | 0.0 | 0.00 | 0.04 | 0.00 | 81 | 987.3 |
| 20260901041034 | 59 | 165 | 0.0 | 2.6 | 0.00 | 0.05 | 0.00 | 80 | 987.4 |
| 20260901040535 | 60 | 152 | 0.0 | 1.7 | 0.00 | 0.05 | 0.00 | 79 | 987.4 |
| 20260901040033 | 60 | 257 | 0.0 | 0.0 | 0.00 | 0.05 | 0.00 | 78 | 987.4 |
| 20260901035534 | 60 | 257 | 0.0 | 0.0 | 0.00 | 0.05 | 0.00 | 78 | 987.6 |
| 20260901035033 | 60 | 257 | 0.0 | 0.0 | 0.00 | 0.05 | 0.00 | 78 | 987.8 |
| 20260901034532 | 60 | 229 | 0.0 | 0.9 | 0.00 | 0.05 | 0.00 | 78 | 987.7 |
| 20260901034031 | 60 | 310 | 0.0 | 0.9 | 0.00 | 0.05 | 0.00 | 79 | 987.7 |
| 20260901033532 | 60 | 335 | 0.0 | 0.9 | 0.00 | 0.05 | 0.00 | 80 | 987.8 |
| 20260901033031 | 60 | 353 | 0.0 | 0.0 | 0.00 | 0.05 | 0.00 | 80 | 987.9 |
| 20260901032532 | 60 | 353 | 0.0 | 0.9 | 0.00 | 0.05 | 0.00 | 79 | 987.9 |
| 20260901032032 | 61 | 353 | 0.0 | 0.9 | 0.00 | 0.05 | 0.00 | 78 | 987.9 |
| 20260901031531 | 61 | 337 | 0.0 | 1.7 | 0.00 | 0.05 | 0.00 | 76 | 987.9 |
| 20260901031032 | 61 | 335 | 0.0 | 1.7 | 0.00 | 0.05 | 0.00 | 75 | 988.0 |
| 20260901030531 | 61 | 328 | 0.0 | 1.7 | 0.00 | 0.05 | 0.00 | 74 | 988.2 |
| 20260901030032 | 61 | 14 | 0.0 | 1.7 | 0.00 | 0.05 | 0.00 | 73 | 988.0 |
| 20260901025531 | 62 | 330 | 0.0 | 1.7 | 0.00 | 0.05 | 0.00 | 74 | 988.0 |
| 20260901025032 | 62 | 18 | 0.0 | 2.6 | 0.00 | 0.05 | 0.00 | 74 | 987.9 |
| 20260901024532 | 62 | 315 | 0.0 | 2.6 | 0.00 | 0.05 | 0.00 | 75 | 987.8 |
| 20260901024031 | 62 | 311 | 0.0 | 4.3 | 0.00 | 0.05 | 0.00 | 75 | 987.7 |
| 20260901023531 | 62 | 293 | 0.9 | 5.2 | 0.00 | 0.05 | 0.00 | 74 | 987.6 |
| 20260901023036 | 62 | 297 | 0.9 | 7.0 | 0.00 | 0.05 | 0.00 | 73 | 987.7 |
| 20260901023032 | 62 | 227 | 0.9 | 5.2 | 0.00 | 0.05 | 0.00 | 73 | 987.7 |
| 20260901022031 | 63 | 212 | 2.6 | 9.6 | 0.00 | 0.05 | 0.00 | 71 | 987.7 |
| 20260901021531 | 64 | 198 | 4.3 | 12.2 | 0.00 | 0.05 | 0.00 | 69 | 987.6 |
| 20260901021031 | 65 | 224 | 5.2 | 14.8 | 0.00 | 0.05 | 0.00 | 65 | 987.7 |
| 20260901020531 | 66 | 290 | 7.8 | 14.8 | 0.00 | 0.05 | 0.00 | 62 | 987.8 |
| 20260901020032 | 67 | 216 | 8.7 | 20.0 | 0.00 | 0.05 | 0.00 | 59 | 987.4 |
| 20260901015536 | 72 | 224 | 5.2 | 20.0 | 0.00 | 0.05 | 0.00 | 46 | 986.7 |
| 20260901015531 | 69 | 212 | 8.7 | 20.0 | 0.00 | 0.05 | 0.00 | 54 | 987.3 |
| 20260901014531 | 72 | 148 | 1.7 | 5.2 | 0.00 | 0.05 | 0.00 | 45 | 985.9 |
| 20260901014031 | 72 | 181 | 1.7 | 5.2 | 0.00 | 0.05 | 0.00 | 44 | 985.6 |
| 20260901013532 | 73 | 226 | 0.9 | 5.2 | 0.00 | 0.05 | 0.00 | 43 | 985.3 |
| 20260901013031 | 73 | 173 | 0.0 | 3.5 | 0.00 | 0.05 | 0.00 | 42 | 985.2 |
| 20260901012531 | 74 | 205 | 0.9 | 4.3 | 0.00 | 0.05 | 0.00 | 42 | 985.2 |
| 20260901012031 | 74 | 120 | 1.7 | 10.4 | 0.00 | 0.05 | 0.00 | 42 | 985.1 |
| 20260901011540 | 75 | 182 | 3.5 | 7.8 | 0.00 | 0.05 | 0.00 | 40 | 984.8 |
| 20260901011536 | 74 | 144 | 4.3 | 10.4 | 0.00 | 0.05 | 0.00 | 40 | 985.0 |
| 20260901010531 | 76 | 115 | 0.9 | 7.0 | 0.00 | 0.05 | 0.00 | 39 | 984.6 |
| 20260901010032 | 76 | 234 | 0.0 | 3.5 | 0.00 | 0.05 | 0.00 | 42 | 984.5 |
| 20260901005531 | 77 | 231 | 0.0 | 3.5 | 0.00 | 0.05 | 0.00 | 42 | 984.5 |
| 20260901005032 | 77 | 342 | 0.0 | 0.9 | 0.00 | 0.05 | 0.00 | 41 | 984.6 |
| 20260901004531 | 78 | 352 | 0.0 | 0.9 | 0.00 | 0.05 | 0.00 | 40 | 984.7 |
| 20260901004030 | 78 | 158 | 0.0 | 1.7 | 0.00 | 0.05 | 0.00 | 38 | 984.8 |
| 20260901003528 | 78 | 165 | 0.0 | 3.5 | 0.00 | 0.05 | 0.00 | 38 | 985.0 |
| 20260901003025 | 79 | 155 | 0.0 | 3.5 | 0.00 | 0.05 | 0.00 | 37 | 985.0 |
| 20260901002525 | 78 | 261 | 0.0 | 1.7 | 0.00 | 0.05 | 0.00 | 37 | 985.0 |
| 20260901002030 | 79 | 264 | 0.0 | 1.7 | 0.00 | 0.05 | 0.00 | 36 | 985.2 |
| 20260901002026 | 78 | 113 | 0.0 | 1.7 | 0.00 | 0.05 | 0.00 | 37 | 985.1 |
| 20260901001025 | 80 | 357 | 0.0 | 1.7 | 0.00 | 0.05 | 0.00 | 35 | 985.2 |
| 20260901000524 | 80 | 124 | 0.0 | 1.7 | 0.00 | 0.05 | 0.00 | 35 | 985.2 |
| 20260901000024 | 80 | 107 | 0.0 | 2.6 | 0.00 | 0.05 | 0.00 | 34 | 985.3 |
| 20260831235521 | 80 | 220 | 0.0 | 2.6 | 0.00 | 0.05 | 0.00 | 34 | 985.3 |
| 20260831235026 | 81 | 227 | 0.0 | 2.6 | 0.00 | 0.05 | 0.00 | 32 | 985.4 |
| 20260831235022 | 80 | 276 | 0.0 | 2.6 | 0.00 | 0.05 | 0.00 | 34 | 985.4 |
| 20260831234025 | 82 | 284 | 0.0 | 1.7 | 0.00 | 0.05 | 0.00 | 32 | 985.3 |
| 20260831234021 | 82 | 56 | 0.0 | 1.7 | 0.00 | 0.05 | 0.00 | 32 | 985.3 |
| 20260831233018 | 83 | 272 | 0.0 | 1.7 | 0.00 | 0.05 | 0.00 | 31 | 985.3 |
| 20260831232521 | 83 | 145 | 0.0 | 2.6 | 0.00 | 0.05 | 0.00 | 30 | 985.4 |
| 20260831232517 | 83 | 203 | 0.0 | 1.7 | 0.00 | 0.05 | 0.00 | 31 | 985.4 |
| 20260831232123 | 83 | 227 | 0.0 | 5.2 | 0.00 | 0.05 | 0.00 | 31 | 985.6 |
| 20260831231017 | 83 | 115 | 0.0 | 5.2 | 0.00 | 0.05 | 0.00 | 31 | 985.4 |
| 20260831230519 | 82 | 151 | 0.0 | 2.6 | 0.00 | 0.05 | 0.00 | 31 | 985.4 |
| 20260831230515 | 83 | 82 | 0.0 | 1.7 | 0.00 | 0.05 | 0.00 | 30 | 985.4 |
| 20260831225515 | 81 | 124 | 0.0 | 2.6 | 0.00 | 0.05 | 0.00 | 32 | 985.6 |
| 20260831225020 | 80 | 356 | 0.0 | 1.7 | 0.00 | 0.05 | 0.00 | 33 | 985.7 |
| 20260831225014 | 80 | 242 | 0.0 | 1.7 | 0.00 | 0.05 | 0.00 | 32 | 985.6 |
| 20260831224013 | 80 | 156 | 0.0 | 1.7 | 0.00 | 0.06 | 0.00 | 32 | 985.8 |
| 20260831223513 | 80 | 341 | 0.0 | 1.7 | 0.00 | 0.06 | 0.00 | 33 | 985.8 |
| 20260831223013 | 81 | 266 | 0.0 | 0.9 | 0.00 | 0.09 | 0.00 | 32 | 985.8 |
| 20260831222620 | 83 | 319 | 0.0 | 4.3 | 0.00 | 0.16 | 0.00 | 30 | 986.0 |
| 20260831222518 | 82 | 241 | 0.0 | 1.7 | 0.00 | 0.16 | 0.00 | 31 | 986.0 |
| 20260831222513 | 82 | 248 | 0.0 | 1.7 | 0.00 | 0.16 | 0.00 | 31 | 985.9 |
| 20260831221013 | 83 | 118 | 0.0 | 6.1 | 0.00 | 0.16 | 0.00 | 29 | 986.0 |
| 20260831220514 | 84 | 134 | 0.9 | 6.1 | 0.00 | 0.16 | 0.00 | 29 | 986.0 |
| 20260831220015 | 84 | 130 | 0.0 | 3.5 | 0.00 | 0.17 | 0.00 | 29 | 986.0 |
| 20260831215512 | 85 | 195 | 0.0 | 2.6 | 0.00 | 0.18 | 0.00 | 28 | 986.0 |
| 20260831215022 | 86 | 252 | 0.0 | 2.6 | 0.00 | 0.19 | 0.00 | 30 | 986.0 |
| 20260831214512 | 86 | 236 | 0.0 | 1.7 | 0.00 | 0.20 | 0.00 | 29 | 986.1 |
| 20260831214016 | 85 | 254 | 0.0 | 2.6 | 0.00 | 0.21 | 0.00 | 29 | 986.1 |
| 20260831213511 | 83 | 199 | 0.9 | 4.3 | 0.00 | 0.21 | 0.00 | 29 | 986.3 |
| 20260831213011 | 83 | 197 | 0.9 | 5.2 | 0.00 | 0.21 | 0.00 | 29 | 986.4 |
| 20260831212512 | 83 | 191 | 0.0 | 5.2 | 0.00 | 0.21 | 0.00 | 29 | 986.4 |
| 20260831212011 | 82 | 49 | 0.0 | 2.6 | 0.00 | 0.21 | 0.00 | 30 | 986.5 |
| 20260831211510 | 82 | 125 | 0.0 | 2.6 | 0.00 | 0.21 | 0.00 | 31 | 986.7 |
| 20260831211010 | 83 | 124 | 0.0 | 0.9 | 0.00 | 0.21 | 0.00 | 29 | 986.6 |
| 20260831210510 | 83 | 124 | 0.0 | 3.5 | 0.00 | 0.21 | 0.00 | 30 | 986.6 |
| 20260831210009 | 84 | 166 | 0.0 | 3.5 | 0.00 | 0.21 | 0.00 | 28 | 986.6 |
| 20260831205509 | 84 | 129 | 0.0 | 1.7 | 0.00 | 0.21 | 0.00 | 29 | 986.6 |
| 20260831205009 | 83 | 130 | 0.0 | 1.7 | 0.00 | 0.21 | 0.00 | 30 | 986.7 |
| 20260831204508 | 82 | 129 | 0.9 | 5.2 | 0.00 | 0.21 | 0.00 | 31 | 986.9 |
| 20260831204013 | 82 | 183 | 0.0 | 4.3 | 0.00 | 0.21 | 0.00 | 31 | 987.0 |
| 20260831204009 | 81 | 135 | 0.9 | 5.2 | 0.00 | 0.21 | 0.00 | 31 | 986.9 |
| 20260831203014 | 82 | 150 | 0.0 | 1.7 | 0.00 | 0.21 | 0.00 | 31 | 987.0 |
| 20260831203010 | 82 | 139 | 0.0 | 1.7 | 0.00 | 0.21 | 0.00 | 31 | 987.0 |
| 20260831202013 | 82 | 120 | 0.0 | 2.6 | 0.00 | 0.21 | 0.00 | 31 | 987.2 |
| 20260831202009 | 82 | 150 | 0.0 | 1.7 | 0.00 | 0.21 | 0.00 | 31 | 987.0 |
| 20260831201009 | 82 | 281 | 0.0 | 2.6 | 0.00 | 0.21 | 0.00 | 30 | 987.2 |
| 20260831200510 | 82 | 143 | 0.0 | 2.6 | 0.00 | 0.21 | 0.00 | 33 | 987.2 |
| 20260831200009 | 81 | 194 | 0.0 | 2.6 | 0.00 | 0.21 | 0.00 | 32 | 987.3 |
| 20260831195509 | 81 | 129 | 0.0 | 1.7 | 0.00 | 0.21 | 0.00 | 31 | 987.3 |
| 20260831195014 | 81 | 306 | 0.0 | 3.5 | 0.00 | 0.21 | 0.00 | 31 | 987.4 |
| 20260831195009 | 81 | 309 | 0.0 | 1.7 | 0.00 | 0.21 | 0.00 | 33 | 987.4 |
| 20260831194615 | 81 | 160 | 0.9 | 4.3 | 0.00 | 0.21 | 0.00 | 33 | 987.7 |
| 20260831193507 | 81 | 168 | 0.9 | 4.3 | 0.00 | 0.21 | 0.00 | 33 | 987.7 |
| 20260831193005 | 82 | 213 | 0.0 | 1.7 | 0.00 | 0.21 | 0.00 | 33 | 987.7 |
| 20260831192505 | 81 | 200 | 0.0 | 0.9 | 0.00 | 0.21 | 0.00 | 34 | 987.7 |
| 20260831192009 | 79 | 150 | 0.9 | 3.5 | 0.00 | 0.21 | 0.00 | 35 | 987.9 |
| 20260831192005 | 80 | 134 | 0.9 | 3.5 | 0.00 | 0.21 | 0.00 | 35 | 987.7 |
| 20260831191005 | 80 | 136 | 0.0 | 2.6 | 0.00 | 0.21 | 0.00 | 35 | 987.9 |
| 20260831190510 | 80 | 207 | 0.0 | 1.7 | 0.00 | 0.21 | 0.00 | 30 | 988.0 |
| 20260831190505 | 80 | 115 | 0.0 | 2.6 | 0.00 | 0.21 | 0.00 | 34 | 987.9 |
| 20260831190005 | 79 | 123 | 0.0 | 2.6 | 0.00 | 0.21 | 0.00 | 34 | 987.9 |
| 20260831185005 | 80 | 134 | 0.0 | 1.7 | 0.00 | 0.21 | 0.00 | 33 | 988.2 |
| 20260831184505 | 80 | 146 | 0.0 | 3.5 | 0.00 | 0.21 | 0.00 | 34 | 988.2 |
| 20260831184005 | 80 | 138 | 0.0 | 3.5 | 0.00 | 0.21 | 0.00 | 33 | 988.2 |
| 20260831183502 | 80 | 357 | 0.0 | 0.9 | 0.00 | 0.21 | 0.00 | 33 | 988.2 |
| 20260831183002 | 79 | 264 | 0.0 | 1.7 | 0.00 | 0.21 | 0.00 | 33 | 988.3 |
| 20260831182501 | 79 | 319 | 0.0 | 1.7 | 0.00 | 0.21 | 0.00 | 34 | 988.3 |
| 20260831182001 | 79 | 352 | 0.0 | 1.7 | 0.00 | 0.21 | 0.00 | 33 | 988.3 |
| 20260831181505 | 79 | 259 | 0.0 | 0.9 | 0.00 | 0.21 | 0.00 | 36 | 988.4 |
| 20260831181501 | 79 | 319 | 0.0 | 1.7 | 0.00 | 0.21 | 0.00 | 35 | 988.4 |
| 20260831180501 | 78 | 5 | 0.0 | 2.6 | 0.00 | 0.21 | 0.00 | 33 | 988.5 |
| 20260831180000 | 78 | 342 | 0.0 | 2.6 | 0.00 | 0.21 | 0.00 | 36 | 988.5 |
| 20260831175501 | 77 | 165 | 0.0 | 1.7 | 0.00 | 0.21 | 0.00 | 35 | 988.6 |
| 20260831175001 | 77 | 25 | 0.0 | 4.3 | 0.00 | 0.21 | 0.00 | 37 | 988.5 |
| 20260831174505 | 77 | 134 | 0.0 | 3.5 | 0.00 | 0.21 | 0.00 | 36 | 988.5 |
| 20260831174501 | 77 | 342 | 0.0 | 4.3 | 0.00 | 0.21 | 0.00 | 35 | 988.5 |
| 20260831173505 | 78 | 354 | 0.0 | 2.6 | 0.00 | 0.21 | 0.00 | 35 | 988.6 |
| 20260831173501 | 78 | 14 | 0.0 | 1.7 | 0.00 | 0.21 | 0.00 | 35 | 988.5 |
| 20260831173107 | 78 | 164 | 0.0 | 2.6 | 0.00 | 0.21 | 0.00 | 35 | 988.6 |
| 20260831172000 | 78 | 147 | 0.0 | 0.9 | 0.00 | 0.21 | 0.00 | 36 | 988.5 |
| 20260831171500 | 78 | 255 | 0.0 | 0.9 | 0.00 | 0.21 | 0.00 | 37 | 988.5 |
| 20260831171001 | 78 | 295 | 0.0 | 0.9 | 0.00 | 0.21 | 0.00 | 36 | 988.6 |
| 20260831170501 | 78 | 229 | 0.0 | 0.9 | 0.00 | 0.21 | 0.00 | 37 | 988.6 |
| 20260831170002 | 78 | 229 | 0.0 | 0.9 | 0.00 | 0.21 | 0.00 | 37 | 988.6 |
| 20260831165501 | 77 | 180 | 0.0 | 2.6 | 0.00 | 0.21 | 0.00 | 36 | 988.6 |
| 20260831165000 | 77 | 220 | 0.0 | 2.6 | 0.00 | 0.21 | 0.00 | 36 | 988.6 |
| 20260831164501 | 77 | 303 | 0.0 | 1.7 | 0.00 | 0.21 | 0.00 | 37 | 988.6 |
| 20260831163958 | 77 | 135 | 0.0 | 1.7 | 0.00 | 0.21 | 0.00 | 37 | 988.6 |
| 20260831163459 | 76 | 170 | 0.0 | 1.7 | 0.00 | 0.21 | 0.00 | 36 | 988.6 |
| 20260831162959 | 76 | 150 | 0.0 | 3.5 | 0.00 | 0.21 | 0.00 | 40 | 988.5 |
| 20260831162458 | 75 | 319 | 0.9 | 3.5 | 0.00 | 0.21 | 0.00 | 40 | 988.5 |
| 20260831161958 | 74 | 342 | 0.9 | 3.5 | 0.00 | 0.21 | 0.00 | 38 | 988.5 |
| 20260831161456 | 74 | 347 | 0.9 | 2.6 | 0.00 | 0.21 | 0.00 | 37 | 988.5 |
| 20260831161007 | 75 | 324 | 0.0 | 4.3 | 0.00 | 0.21 | 0.00 | 39 | 988.4 |
| 20260831160957 | 74 | 349 | 0.9 | 4.3 | 0.00 | 0.21 | 0.00 | 38 | 988.4 |
| 20260831160000 | 74 | 265 | 0.0 | 1.7 | 0.00 | 0.21 | 0.00 | 41 | 988.4 |
| 20260831155956 | 74 | 326 | 0.0 | 0.9 | 0.00 | 0.21 | 0.00 | 42 | 988.4 |
| 20260831154957 | 74 | 352 | 0.0 | 2.6 | 0.00 | 0.21 | 0.00 | 41 | 988.3 |
| 20260831154456 | 74 | 307 | 0.0 | 2.6 | 0.00 | 0.21 | 0.00 | 41 | 988.3 |
| 20260831153956 | 74 | 229 | 0.0 | 0.9 | 0.00 | 0.21 | 0.00 | 40 | 988.3 |
| 20260831153456 | 74 | 254 | 0.0 | 0.0 | 0.00 | 0.21 | 0.00 | 40 | 988.2 |
| 20260831152956 | 74 | 272 | 0.0 | 0.0 | 0.00 | 0.21 | 0.00 | 42 | 988.2 |
| 20260831152500 | 73 | 193 | 0.0 | 0.9 | 0.00 | 0.21 | 0.00 | 42 | 988.3 |
| 20260831152456 | 73 | 192 | 0.0 | 0.9 | 0.00 | 0.21 | 0.00 | 40 | 988.2 |
| 20260831151454 | 72 | 240 | 0.0 | 0.9 | 0.00 | 0.21 | 0.00 | 42 | 988.2 |
| 20260831150954 | 72 | 255 | 0.0 | 2.6 | 0.00 | 0.21 | 0.00 | 45 | 988.2 |
| 20260831150453 | 72 | 281 | 0.0 | 2.6 | 0.00 | 0.21 | 0.00 | 43 | 988.2 |
| 20260831145952 | 71 | 319 | 0.0 | 0.0 | 0.00 | 0.21 | 0.00 | 41 | 988.0 |
| 20260831145451 | 71 | 300 | 0.0 | 0.0 | 0.00 | 0.21 | 0.00 | 43 | 988.0 |
| 20260831144955 | 70 | 209 | 0.0 | 0.9 | 0.00 | 0.21 | 0.00 | 44 | 988.0 |
| 20260831144453 | 69 | 208 | 0.0 | 0.9 | 0.00 | 0.21 | 0.00 | 46 | 988.0 |
| 20260831143958 | 67 | 354 | 0.0 | 1.7 | 0.00 | 0.21 | 0.00 | 53 | 988.0 |
| 20260831143953 | 67 | 355 | 0.0 | 0.0 | 0.00 | 0.21 | 0.00 | 51 | 988.0 |
| 20260831143446 | 67 | 354 | 0.0 | 0.0 | 0.00 | 0.21 | 0.00 | 53 | 988.0 |
| 20260831143052 | 67 | 354 | 0.0 | 1.7 | 0.00 | 0.21 | 0.00 | 54 | 988.0 |
| 20260831141947 | 67 | 238 | 0.0 | 0.9 | 0.00 | 0.21 | 0.00 | 54 | 987.9 |
| 20260831141446 | 67 | 196 | 0.0 | 1.7 | 0.00 | 0.21 | 0.00 | 48 | 987.9 |
| 20260831140948 | 66 | 196 | 0.0 | 1.7 | 0.00 | 0.21 | 0.00 | 50 | 987.9 |
| 20260831140446 | 66 | 207 | 0.0 | 0.0 | 0.00 | 0.21 | 0.00 | 50 | 987.9 |
| 20260831135946 | 65 | 223 | 0.0 | 1.7 | 0.00 | 0.21 | 0.00 | 51 | 987.8 |
| 20260831135450 | 65 | 228 | 0.9 | 3.5 | 0.00 | 0.21 | 0.00 | 51 | 987.8 |
| 20260831135446 | 65 | 227 | 0.9 | 3.5 | 0.00 | 0.21 | 0.00 | 52 | 987.8 |
| 20260831134448 | 64 | 183 | 1.7 | 3.5 | 0.00 | 0.21 | 0.00 | 54 | 987.8 |
| 20260831134444 | 65 | 205 | 0.9 | 3.5 | 0.00 | 0.21 | 0.00 | 53 | 987.8 |
| 20260831133448 | 62 | 173 | 0.0 | 1.7 | 0.00 | 0.21 | 0.00 | 58 | 987.6 |
| 20260831133444 | 63 | 188 | 0.9 | 3.5 | 0.00 | 0.21 | 0.00 | 57 | 987.7 |
| 20260831132445 | 62 | 194 | 0.0 | 1.7 | 0.00 | 0.21 | 0.00 | 58 | 987.4 |
| 20260831131944 | 62 | 206 | 0.0 | 1.7 | 0.00 | 0.21 | 0.00 | 57 | 987.3 |
| 20260831131444 | 61 | 208 | 0.0 | 0.9 | 0.00 | 0.21 | 0.00 | 57 | 987.3 |
| 20260831130945 | 61 | 238 | 0.0 | 0.0 | 0.00 | 0.21 | 0.00 | 60 | 987.3 |
| 20260831130444 | 62 | 178 | 0.0 | 0.0 | 0.00 | 0.21 | 0.00 | 57 | 987.1 |
| 20260831125944 | 62 | 191 | 0.0 | 2.6 | 0.00 | 0.21 | 0.00 | 55 | 987.1 |
| 20260831125442 | 62 | 191 | 0.0 | 2.6 | 0.00 | 0.21 | 0.00 | 55 | 987.0 |
| 20260831124941 | 62 | 217 | 0.9 | 4.3 | 0.00 | 0.21 | 0.00 | 55 | 986.9 |
| 20260831124443 | 62 | 218 | 0.9 | 4.3 | 0.00 | 0.21 | 0.00 | 55 | 986.9 |
| 20260831123943 | 63 | 204 | 0.9 | 5.2 | 0.00 | 0.21 | 0.00 | 54 | 986.9 |
| 20260831123442 | 63 | 215 | 1.7 | 5.2 | 0.00 | 0.21 | 0.00 | 54 | 986.9 |
| 20260831122942 | 63 | 195 | 1.7 | 4.3 | 0.00 | 0.21 | 0.00 | 54 | 986.9 |
| 20260831122441 | 63 | 197 | 1.7 | 4.3 | 0.00 | 0.21 | 0.00 | 53 | 986.7 |
| 20260831121944 | 64 | 226 | 2.6 | 5.2 | 0.00 | 0.21 | 0.00 | 53 | 986.7 |
| 20260831121441 | 64 | 227 | 3.5 | 7.0 | 0.00 | 0.21 | 0.00 | 53 | 986.7 |
| 20260831120941 | 64 | 181 | 3.5 | 7.0 | 0.00 | 0.21 | 0.00 | 53 | 986.7 |
| 20260831120438 | 63 | 208 | 2.6 | 5.2 | 0.00 | 0.21 | 0.00 | 53 | 986.6 |
| 20260831115938 | 63 | 197 | 1.7 | 5.2 | 0.00 | 0.21 | 0.00 | 54 | 986.6 |
| 20260831115438 | 63 | 152 | 1.7 | 5.2 | 0.00 | 0.21 | 0.00 | 54 | 986.6 |
| 20260831114938 | 63 | 216 | 0.9 | 2.6 | 0.00 | 0.21 | 0.00 | 54 | 986.6 |
| 20260831114436 | 63 | 193 | 0.9 | 2.6 | 0.00 | 0.21 | 0.00 | 55 | 986.6 |
| 20260831113935 | 63 | 182 | 0.9 | 2.6 | 0.00 | 0.21 | 0.00 | 56 | 986.5 |
| 20260831113434 | 62 | 167 | 0.9 | 4.3 | 0.00 | 0.21 | 0.00 | 56 | 986.5 |